• In United Kingdom
  • List of Countries
  • For 7 days
  • Water Temperature
  • Satellite Maps
  • Weather Map
  • Weather Widgets
  • user-avatar
    Login

    Hourly Weather Pointe-Noire

    Today, 19 June, Tuesday

    Time Temperature Precipitation Wind Pressure Humidity
    00:00 +24°C° 0 mm 2 mps 723 mmHg 92%
    01:00 +24°C° 0 mm 2 mps 723 mmHg 93%
    02:00 +23°C° 0.1 mm 2 mps 723 mmHg 93%
    03:00 +23°C° 0.1 mm 2 mps 723 mmHg 93%
    04:00 +23°C° 0.1 mm 2 mps 722 mmHg 94%
    05:00 +23°C° 0.1 mm 2 mps 722 mmHg 93%
    06:00 +23°C° 0.1 mm 2 mps 723 mmHg 93%
    07:00 +23°C° 0.1 mm 2 mps 723 mmHg 93%
    08:00 +24°C° 0.1 mm 2 mps 723 mmHg 91%
    09:00 +24°C° 0.1 mm 2 mps 723 mmHg 88%
    10:00 +25°C° 0.1 mm 2 mps 723 mmHg 86%
    11:00 +26°C° 0.1 mm 2 mps 723 mmHg 82%
    12:00 +27°C° 0.1 mm 2 mps 723 mmHg 78%
    13:00 +27°C° 0.1 mm 3 mps 722 mmHg 74%
    14:00 +27°C° 0.5 mm 3 mps 722 mmHg 78%
    15:00 +27°C° 0.5 mm 2 mps 721 mmHg 81%
    16:00 +27°C° 0.5 mm 2 mps 721 mmHg 85%
    17:00 +26°C° 0.5 mm 2 mps 721 mmHg 88%
    18:00 +25°C° 0.5 mm 2 mps 721 mmHg 92%
    19:00 +23°C° 0.5 mm 2 mps 721 mmHg 96%
    20:00 +23°C° 0.3 mm 2 mps 722 mmHg 96%
    21:00 +23°C° 0.3 mm 2 mps 723 mmHg 96%
    22:00 +23°C° 0.3 mm 2 mps 723 mmHg 96%
    23:00 +23°C° 0.1 mm 2 mps 723 mmHg 97%

    Tomorrow, 20 June, Wednesday

    Time Temperature Precipitation Wind Pressure Humidity
    00:00 +23°C° 0.1 mm 2 mps 723 mmHg 97%
    01:00 +23°C° 0.1 mm 2 mps 723 mmHg 97%
    02:00 +21°C° 0.3 mm 2 mps 723 mmHg 97%
    03:00 +21°C° 0.3 mm 2 mps 722 mmHg 97%
    04:00 +22°C° 0.3 mm 1 mps 722 mmHg 98%
    05:00 +22°C° 0.1 mm 1 mps 722 mmHg 98%
    06:00 +22°C° 0.1 mm 1 mps 723 mmHg 97%
    07:00 +22°C° 0.1 mm 1 mps 723 mmHg 97%
    08:00 +23°C° 0 mm 2 mps 723 mmHg 94%
    09:00 +24°C° 0 mm 2 mps 723 mmHg 90%
    10:00 +25°C° 0 mm 2 mps 724 mmHg 87%
    11:00 +26°C° 0.1 mm 2 mps 724 mmHg 82%
    12:00 +27°C° 0.1 mm 2 mps 723 mmHg 78%
    13:00 +28°C° 0.1 mm 2 mps 723 mmHg 73%
    14:00 +27°C° 0.6 mm 2 mps 723 mmHg 75%
    15:00 +27°C° 0.6 mm 2 mps 722 mmHg 77%
    16:00 +27°C° 0.6 mm 2 mps 722 mmHg 79%
    17:00 +26°C° 0.9 mm 2 mps 722 mmHg 85%
    18:00 +24°C° 0.9 mm 2 mps 722 mmHg 91%
    19:00 +23°C° 0.9 mm 1 mps 722 mmHg 97%
    20:00 +23°C° 0.2 mm 1 mps 723 mmHg 97%
    21:00 +23°C° 0.2 mm 1 mps 724 mmHg 98%
    22:00 +23°C° 0.2 mm 1 mps 724 mmHg 99%
    23:00 +22°C° 0.1 mm 1 mps 724 mmHg 99%

    Day after tomorrow, 21 June, Thursday

    Time Temperature Precipitation Wind Pressure Humidity
    00:00 +22°C° 0.1 mm 1 mps 724 mmHg 99%
    01:00 +22°C° 0.1 mm 1 mps 724 mmHg 99%
    02:00 +22°C° 0 mm 1 mps 723 mmHg 99%
    03:00 +22°C° 0 mm 1 mps 723 mmHg 99%
    04:00 +22°C° 0 mm 1 mps 722 mmHg 99%
    05:00 +22°C° 0 mm 1 mps 723 mmHg 98%
    06:00 +22°C° 0 mm 1 mps 723 mmHg 98%
    07:00 +22°C° 0 mm 1 mps 723 mmHg 98%
    08:00 +23°C° 0 mm 1 mps 724 mmHg 94%
    09:00 +24°C° 0 mm 1 mps 724 mmHg 90%
    10:00 +25°C° 0 mm 1 mps 725 mmHg 86%
    11:00 +26°C° 0 mm 1 mps 724 mmHg 80%
    12:00 +27°C° 0 mm 1 mps 724 mmHg 73%
    13:00 +28°C° 0 mm 1 mps 723 mmHg 67%
    14:00 +29°C° 0.1 mm 1 mps 723 mmHg 67%
    15:00 +29°C° 0.1 mm 1 mps 722 mmHg 67%
    16:00 +29°C° 0.1 mm 1 mps 721 mmHg 67%
    17:00 +27°C° 0.3 mm 1 mps 721 mmHg 76%
    18:00 +26°C° 0.3 mm 1 mps 722 mmHg 86%
    19:00 +24°C° 0.3 mm 1 mps 722 mmHg 95%
    20:00 +23°C° 0 mm 1 mps 723 mmHg 96%
    21:00 +23°C° 0 mm 1 mps 724 mmHg 98%
    22:00 +23°C° 0 mm 1 mps 724 mmHg 99%
    23:00 +23°C° 0 mm 1 mps 724 mmHg 99%

    22 June, Friday

    Time Temperature Precipitation Wind Pressure Humidity
    00:00 +23°C° 0 mm 1 mps 724 mmHg 99%
    01:00 +23°C° 0 mm 1 mps 724 mmHg 99%
    02:00 +22°C° 0 mm 1 mps 723 mmHg 98%
    03:00 +22°C° 0 mm 1 mps 723 mmHg 98%
    04:00 +22°C° 0 mm 1 mps 723 mmHg 98%
    05:00 +22°C° 0 mm 1 mps 723 mmHg 97%
    06:00 +22°C° 0 mm 1 mps 723 mmHg 97%
    07:00 +23°C° 0 mm 1 mps 724 mmHg 97%
    08:00 +24°C° 0 mm 1 mps 724 mmHg 92%
    09:00 +25°C° 0 mm 1 mps 725 mmHg 86%
    10:00 +26°C° 0 mm 1 mps 725 mmHg 81%
    11:00 +27°C° 0 mm 1 mps 724 mmHg 75%
    12:00 +28°C° 0 mm 1 mps 724 mmHg 69%
    13:00 +29°C° 0 mm 1 mps 723 mmHg 64%
    14:00 +30°C° 0 mm 1 mps 722 mmHg 61%
    15:00 +30°C° 0 mm 1 mps 722 mmHg 59%
    16:00 +31°C° 0 mm 1 mps 721 mmHg 57%
    17:00 +29°C° 0.1 mm 1 mps 721 mmHg 66%
    18:00 +27°C° 0.1 mm 1 mps 721 mmHg 75%
    19:00 +25°C° 0.1 mm 1 mps 722 mmHg 84%
    20:00 +24°C° 0 mm 1 mps 722 mmHg 88%
    21:00 +24°C° 0 mm 1 mps 723 mmHg 91%
    22:00 +23°C° 0 mm 1 mps 723 mmHg 95%
    23:00 +23°C° 0.1 mm 1 mps 723 mmHg 95%

    23 June, Saturday

    Time Temperature Precipitation Wind Pressure Humidity
    00:00 +23°C° 0.1 mm 1 mps 723 mmHg 96%
    01:00 +23°C° 0.1 mm 1 mps 723 mmHg 97%
    02:00 +23°C° 0 mm 1 mps 723 mmHg 97%
    03:00 +23°C° 0 mm 1 mps 722 mmHg 97%
    04:00 +23°C° 0 mm 1 mps 722 mmHg 97%
    05:00 +23°C° 0 mm 1 mps 723 mmHg 97%
    06:00 +23°C° 0 mm 1 mps 723 mmHg 97%
    07:00 +23°C° 0 mm 1 mps 723 mmHg 96%
    08:00 +24°C° 0 mm 1 mps 724 mmHg 88%
    09:00 +26°C° 0 mm 1 mps 724 mmHg 80%
    10:00 +28°C° 0 mm 1 mps 724 mmHg 73%
    11:00 +29°C° 0.2 mm 1 mps 723 mmHg 67%
    12:00 +30°C° 0.2 mm 1 mps 723 mmHg 62%
    13:00 +32°C° 0.2 mm 1 mps 722 mmHg 56%
    14:00 +31°C° 0.5 mm 1 mps 721 mmHg 60%
    15:00 +31°C° 0.5 mm 1 mps 721 mmHg 65%
    16:00 +30°C° 0.5 mm 1 mps 720 mmHg 69%
    17:00 +28°C° 1.3 mm 1 mps 720 mmHg 77%
    18:00 +26°C° 1.3 mm 1 mps 721 mmHg 85%
    19:00 +25°C° 1.3 mm 1 mps 721 mmHg 93%
    20:00 +24°C° 2 mm 1 mps 722 mmHg 95%
    21:00 +24°C° 2 mm 1 mps 722 mmHg 96%
    22:00 +24°C° 2 mm 1 mps 723 mmHg 97%
    23:00 +23°C° 0.3 mm 1 mps 722 mmHg 98%

    24 June, Sunday

    Time Temperature Precipitation Wind Pressure Humidity
    00:00 +23°C° 0.3 mm 1 mps 722 mmHg 98%
    01:00 +23°C° 0.3 mm 1 mps 722 mmHg 99%
    02:00 +23°C° 0 mm 1 mps 721 mmHg 99%
    03:00 +23°C° 0 mm 1 mps 721 mmHg 99%
    04:00 +22°C° 0 mm 1 mps 721 mmHg 99%
    05:00 +22°C° 0.1 mm 1 mps 722 mmHg 99%
    06:00 +22°C° 0.1 mm 1 mps 722 mmHg 98%
    07:00 +23°C° 0.1 mm 1 mps 722 mmHg 98%
    08:00 +23°C° 0.1 mm 1 mps 723 mmHg 95%
    09:00 +24°C° 0.1 mm 1 mps 723 mmHg 92%
    10:00 +25°C° 0.1 mm 1 mps 723 mmHg 90%
    11:00 +27°C° 0.1 mm 1 mps 722 mmHg 81%
    12:00 +29°C° 0.1 mm 1 mps 722 mmHg 72%
    13:00 +30°C° 0.1 mm 2 mps 721 mmHg 64%
    14:00 +30°C° 0.6 mm 1 mps 721 mmHg 67%
    15:00 +30°C° 0.6 mm 1 mps 721 mmHg 71%
    16:00 +29°C° 0.6 mm 1 mps 720 mmHg 75%
    17:00 +28°C° 1 mm 1 mps 720 mmHg 82%
    18:00 +26°C° 1 mm 1 mps 721 mmHg 89%
    19:00 +24°C° 1 mm 1 mps 721 mmHg 96%
    20:00 +22°C° 1.8 mm 0 mps 722 mmHg 96%
    21:00 +22°C° 1.8 mm 0 mps 722 mmHg 97%
    22:00 +22°C° 1.8 mm 0 mps 722 mmHg 97%
    23:00 +21°C° 0.3 mm 0 mps 722 mmHg 98%
    Show more